| time (UTC) | temp F | wind direction | speed knots | gust knots | rain 1hr in | rain 24hr in | rain mn in | humidity % | barometer mb |
| 20260506142340 | 53 | 66 | 11.3 | 20.0 | 0.00 | 0.00 | 0.00 | 75 | |
| 20260506141846 | 53 | 69 | 10.4 | 20.0 | 0.00 | 0.00 | 0.00 | 75 | |
| 20260506141840 | 53 | 48 | 10.4 | 20.0 | 0.00 | 0.00 | 0.00 | 76 | |
| 20260506141109 | 53 | 55 | 9.6 | 20.0 | 0.00 | 0.00 | 0.00 | 75 | |
| 20260506140338 | 53 | 63 | 8.7 | 15.6 | 0.00 | 0.00 | 0.00 | 75 | |
| 20260506135839 | 53 | 46 | 8.7 | 18.2 | 0.00 | 0.00 | 0.00 | 75 | |
| 20260506135336 | 53 | 55 | 10.4 | 18.2 | 0.00 | 0.00 | 0.00 | 75 | |
| 20260506134836 | 53 | 48 | 9.6 | 20.0 | 0.00 | 0.00 | 0.00 | 75 | |
| 20260506134336 | 53 | 74 | 9.6 | 20.0 | 0.00 | 0.00 | 0.00 | 74 | |
| 20260506134105 | 53 | 57 | 9.6 | 16.5 | 0.00 | 0.00 | 0.00 | 74 | |
| 20260506133328 | 53 | 60 | 10.4 | 17.4 | 0.00 | 0.00 | 0.00 | 75 | |
| 20260506132820 | 52 | 59 | 11.3 | 20.0 | 0.00 | 0.00 | 0.00 | 75 | |
| 20260506132316 | 52 | 52 | 8.7 | 20.0 | 0.00 | 0.00 | 0.00 | 76 | |
| 20260506131816 | 52 | 55 | 7.0 | 17.4 | 0.00 | 0.00 | 0.00 | 75 | |
| 20260506131317 | 52 | 69 | 7.0 | 17.4 | 0.00 | 0.00 | 0.00 | 75 | |
| 20260506130816 | 52 | 90 | 7.0 | 14.8 | 0.00 | 0.00 | 0.00 | 73 | |
| 20260506130317 | 52 | 66 | 8.7 | 21.7 | 0.00 | 0.00 | 0.00 | 73 | |
| 20260506125815 | 52 | 58 | 9.6 | 21.7 | 0.00 | 0.00 | 0.00 | 72 | |
| 20260506125544 | 53 | 57 | 7.8 | 20.0 | 0.00 | 0.00 | 0.00 | 72 | |
| 20260506124813 | 53 | 72 | 8.7 | 20.0 | 0.00 | 0.00 | 0.00 | 72 | |
| 20260506124544 | 53 | 51 | 11.3 | 23.5 | 0.00 | 0.00 | 0.00 | 74 | |
| 20260506123813 | 52 | 59 | 12.2 | 26.1 | 0.00 | 0.00 | 0.00 | 71 | |
| 20260506123540 | 52 | 65 | 13.0 | 26.1 | 0.00 | 0.00 | 0.00 | 71 | |
| 20260506122810 | 53 | 71 | 13.9 | 26.9 | 0.00 | 0.00 | 0.00 | 71 | |
| 20260506122310 | 53 | 42 | 14.8 | 26.9 | 0.00 | 0.00 | 0.00 | 71 | |
| 20260506121809 | 53 | 68 | 17.4 | 29.5 | 0.00 | 0.00 | 0.00 | 74 | |
| 20260506121308 | 52 | 36 | 17.4 | 29.5 | 0.00 | 0.00 | 0.00 | 74 | |
| 20260506120811 | 52 | 38 | 16.5 | 24.3 | 0.00 | 0.00 | 0.00 | 73 | |
| 20260506120259 | 52 | 51 | 14.8 | 24.3 | 0.00 | 0.00 | 0.00 | 75 | |
| 20260506115751 | 52 | 38 | 12.2 | 20.9 | 0.00 | 0.00 | 0.00 | 76 | |
| 20260506115242 | 52 | 62 | 11.3 | 23.5 | 0.00 | 0.00 | 0.00 | 77 | |
| 20260506114737 | 52 | 70 | 13.0 | 23.5 | 0.00 | 0.00 | 0.00 | 77 | |
| 20260506114502 | 52 | 61 | 14.8 | 23.5 | 0.00 | 0.00 | 0.00 | 77 | |
| 20260506113719 | 52 | 55 | 13.9 | 23.5 | 0.00 | 0.00 | 0.00 | 77 | |
| 20260506113216 | 52 | 48 | 12.2 | 23.5 | 0.00 | 0.00 | 0.00 | 76 | |
| 20260506112710 | 52 | 67 | 12.2 | 21.7 | 0.00 | 0.00 | 0.00 | 76 | |
| 20260506112433 | 52 | 44 | 12.2 | 18.2 | 0.00 | 0.00 | 0.00 | 77 | |
| 20260506111651 | 52 | 58 | 10.4 | 19.1 | 0.00 | 0.00 | 0.00 | 76 | |
| 20260506111150 | 52 | 28 | 13.0 | 22.6 | 0.00 | 0.00 | 0.00 | 76 | |
| 20260506110636 | 51 | 44 | 13.0 | 22.6 | 0.00 | 0.00 | 0.00 | 75 | |
| 20260506110125 | 51 | 46 | 13.0 | 20.9 | 0.00 | 0.00 | 0.00 | 75 | |
| 20260506105616 | 51 | 42 | 13.9 | 20.9 | 0.00 | 0.00 | 0.00 | 74 | |
| 20260506105117 | 51 | 78 | 14.8 | 25.2 | 0.00 | 0.00 | 0.00 | 76 | |
| 20260506104616 | 51 | 63 | 14.8 | 25.2 | 0.00 | 0.00 | 0.00 | 75 | |
| 20260506104116 | 51 | 54 | 13.9 | 23.5 | 0.00 | 0.00 | 0.00 | 76 | |
| 20260506103616 | 51 | 57 | 14.8 | 23.5 | 0.00 | 0.00 | 0.00 | 75 | |
| 20260506103346 | 51 | 24 | 14.8 | 23.5 | 0.00 | 0.00 | 0.00 | 75 | |
| 20260506102846 | 51 | 61 | 16.5 | 26.1 | 0.00 | 0.00 | 0.00 | 74 | |
| 20260506102115 | 51 | 51 | 18.2 | 30.4 | 0.00 | 0.01 | 0.00 | 74 | |
| 20260506101618 | 51 | 53 | 17.4 | 30.4 | 0.00 | 0.01 | 0.00 | 74 | |
| 20260506101112 | 51 | 61 | 16.5 | 26.1 | 0.00 | 0.01 | 0.00 | 74 | |
| 20260506100611 | 51 | 43 | 16.5 | 27.8 | 0.00 | 0.01 | 0.00 | 74 | |
| 20260506100119 | 51 | 47 | 16.5 | 27.8 | 0.00 | 0.01 | 0.00 | 74 | |
| 20260506095842 | 51 | 50 | 16.5 | 26.1 | 0.00 | 0.01 | 0.00 | 74 | |
| 20260506095112 | 51 | 61 | 15.6 | 23.5 | 0.00 | 0.01 | 0.00 | 75 | |
| 20260506094612 | 51 | 43 | 15.6 | 25.2 | 0.00 | 0.01 | 0.00 | 74 | |
| 20260506094111 | 51 | 52 | 15.6 | 26.9 | 0.00 | 0.01 | 0.00 | 73 | |
| 20260506093613 | 51 | 52 | 17.4 | 28.7 | 0.00 | 0.01 | 0.00 | 73 | |
| 20260506093113 | 51 | 51 | 17.4 | 28.7 | 0.00 | 0.01 | 0.00 | 72 | |
| 20260506092607 | 51 | 62 | 15.6 | 26.1 | 0.00 | 0.01 | 0.00 | 73 | |
| 20260506092108 | 51 | 42 | 13.0 | 26.1 | 0.00 | 0.01 | 0.00 | 73 | |
| 20260506091607 | 51 | 39 | 13.9 | 24.3 | 0.00 | 0.01 | 0.00 | 76 | |
| 20260506091109 | 51 | 28 | 14.8 | 24.3 | 0.00 | 0.01 | 0.00 | 74 | |
| 20260506090607 | 51 | 32 | 13.0 | 20.9 | 0.00 | 0.01 | 0.00 | 76 | |
| 20260506090107 | 51 | 23 | 13.9 | 20.9 | 0.00 | 0.01 | 0.00 | 75 | |
| 20260506085608 | 51 | 32 | 14.8 | 22.6 | 0.00 | 0.01 | 0.00 | 76 | |
| 20260506085340 | 51 | 40 | 14.8 | 23.5 | 0.00 | 0.01 | 0.00 | 75 | |
| 20260506084609 | 51 | 26 | 14.8 | 23.5 | 0.00 | 0.01 | 0.00 | 76 | |
| 20260506084102 | 51 | 59 | 14.8 | 25.2 | 0.00 | 0.01 | 0.00 | 77 | |
| 20260506083551 | 51 | 47 | 13.0 | 25.2 | 0.00 | 0.01 | 0.00 | 78 | |
| 20260506083053 | 51 | 0 | 12.2 | 22.6 | 0.00 | 0.01 | 0.00 | 78 | |
| 20260506082552 | 51 | 49 | 12.2 | 22.6 | 0.00 | 0.01 | 0.00 | 79 | |
| 20260506082051 | 51 | 35 | 12.2 | 20.9 | 0.00 | 0.01 | 0.00 | 79 | |
| 20260506081552 | 51 | 28 | 13.9 | 29.5 | 0.00 | 0.01 | 0.00 | 81 | |
| 20260506081053 | 51 | 28 | 14.8 | 29.5 | 0.00 | 0.01 | 0.00 | 79 | |
| 20260506080552 | 51 | 44 | 13.9 | 24.3 | 0.00 | 0.01 | 0.00 | 80 | |
| 20260506073513 | 50 | 42 | 11.3 | 20.9 | 0.00 | 0.01 | 0.00 | 85 | |
| 20260506073013 | 50 | 30 | 12.2 | 20.9 | 0.00 | 0.01 | 0.00 | 85 | |
| 20260506072513 | 50 | 13 | 13.9 | 23.5 | 0.00 | 0.01 | 0.00 | 84 | |
| 20260506072015 | 50 | 11 | 13.9 | 23.5 | 0.00 | 0.01 | 0.00 | 84 | |
| 20260506071514 | 50 | 15 | 13.9 | 25.2 | 0.00 | 0.01 | 0.00 | 84 | |
| 20260506071014 | 50 | 21 | 12.2 | 25.2 | 0.00 | 0.01 | 0.00 | 84 | |
| 20260506070513 | 50 | 29 | 13.0 | 21.7 | 0.00 | 0.01 | 0.00 | 84 | |
| 20260506062417 | 50 | 23 | 11.3 | 17.4 | 0.00 | 0.01 | 0.00 | 84 | |
| 20260506061917 | 50 | 19 | 11.3 | 17.4 | 0.00 | 0.01 | 0.00 | 84 | |
| 20260506061419 | 50 | 38 | 10.4 | 17.4 | 0.00 | 0.01 | 0.00 | 84 | |
| 20260506060917 | 50 | 5 | 9.6 | 17.4 | 0.00 | 0.01 | 0.00 | 84 | |
| 20260506060417 | 50 | 26 | 10.4 | 16.5 | 0.00 | 0.01 | 0.00 | 84 | |
| 20260506050902 | 49 | 37 | 7.8 | 13.0 | 0.00 | 0.01 | 0.00 | 86 | |
| 20260506050353 | 49 | 50 | 7.8 | 14.8 | 0.00 | 0.01 | 0.00 | 86 | |
| 20260506044833 | 49 | 32 | 8.7 | 15.6 | 0.00 | 0.01 | 0.00 | 86 | |
| 20260506044327 | 49 | 22 | 9.6 | 15.6 | 0.00 | 0.01 | 0.00 | 86 | |
| 20260506044320 | 49 | 24 | 10.4 | 16.5 | 0.00 | 0.01 | 0.00 | 86 | |
| 20260506043314 | 49 | 34 | 10.4 | 16.5 | 0.00 | 0.01 | 0.00 | 87 | |
| 20260506042803 | 49 | 17 | 11.3 | 17.4 | 0.00 | 0.01 | 0.00 | 87 | |
| 20260506042532 | 49 | 26 | 11.3 | 17.4 | 0.00 | 0.01 | 0.00 | 88 | |
| 20260506041800 | 50 | 22 | 11.3 | 15.6 | 0.00 | 0.01 | 0.00 | 88 | |
| 20260506041307 | 49 | 15 | 12.2 | 20.0 | 0.00 | 0.01 | 0.00 | 88 | |
| 20260506041302 | 49 | 22 | 12.2 | 15.6 | 0.00 | 0.01 | 0.00 | 88 | |
| 20260506040530 | 49 | 22 | 12.2 | 20.0 | 0.00 | 0.01 | 0.00 | 89 | |
| 20260506035802 | 49 | 18 | 11.3 | 16.5 | 0.00 | 0.01 | 0.00 | 89 | |
| 20260506035306 | 49 | 23 | 11.3 | 18.2 | 0.00 | 0.01 | 0.00 | 90 | |
| 20260506035300 | 49 | 20 | 10.4 | 16.5 | 0.00 | 0.01 | 0.00 | 90 | |
| 20260506034300 | 49 | 24 | 12.2 | 18.2 | 0.00 | 0.01 | 0.00 | 90 | |
| 20260506033805 | 49 | 9 | 12.2 | 17.4 | 0.00 | 0.01 | 0.00 | 90 | |
| 20260506033801 | 49 | 17 | 12.2 | 17.4 | 0.00 | 0.01 | 0.00 | 90 | |
| 20260506032803 | 49 | 9 | 13.0 | 17.4 | 0.00 | 0.01 | 0.00 | 90 | |
| 20260506032305 | 50 | 31 | 13.9 | 20.9 | 0.00 | 0.01 | 0.00 | 90 | |
| 20260506031803 | 50 | 17 | 14.8 | 20.9 | 0.00 | 0.01 | 0.00 | 91 | |
| 20260506031301 | 50 | 10 | 13.9 | 20.0 | 0.00 | 0.01 | 0.00 | 91 | |
| 20260506030748 | 50 | 351 | 13.0 | 20.0 | 0.00 | 0.01 | 0.00 | 91 | |
| 20260506030244 | 49 | 21 | 13.0 | 19.1 | 0.00 | 0.01 | 0.00 | 91 | |
| 20260506025735 | 50 | 0 | 13.0 | 18.2 | 0.00 | 0.01 | 0.00 | 91 | |
| 20260506025230 | 49 | 355 | 12.2 | 18.2 | 0.00 | 0.01 | 0.00 | 91 | |
| 20260506024723 | 49 | 13 | 11.3 | 15.6 | 0.00 | 0.01 | 0.00 | 91 | |
| 20260506024719 | 49 | 14 | 12.2 | 18.2 | 0.00 | 0.01 | 0.00 | 91 | |
| 20260506023711 | 49 | 9 | 10.4 | 15.6 | 0.00 | 0.01 | 0.00 | 91 | |
| 20260506023204 | 49 | 24 | 11.3 | 19.1 | 0.00 | 0.01 | 0.00 | 91 | |
| 20260506022657 | 49 | 10 | 10.4 | 19.1 | 0.00 | 0.01 | 0.00 | 91 | |
| 20260506022152 | 49 | 17 | 12.2 | 15.6 | 0.00 | 0.01 | 0.00 | 91 | |
| 20260506022148 | 49 | 19 | 10.4 | 14.8 | 0.00 | 0.01 | 0.00 | 91 | |
| 20260506021141 | 49 | 18 | 11.3 | 15.6 | 0.00 | 0.01 | 0.00 | 91 | |
| 20260506020634 | 49 | 24 | 10.4 | 15.6 | 0.00 | 0.01 | 0.00 | 91 | |
| 20260506020357 | 49 | 9 | 10.4 | 13.9 | 0.00 | 0.01 | 0.00 | 90 | |
| 20260506015622 | 49 | 17 | 10.4 | 15.6 | 0.00 | 0.01 | 0.00 | 90 | |
| 20260506015114 | 49 | 26 | 10.4 | 15.6 | 0.00 | 0.01 | 0.00 | 90 | |
| 20260506014609 | 49 | 17 | 8.7 | 13.9 | 0.00 | 0.01 | 0.00 | 90 | |
| 20260506014059 | 49 | 23 | 8.7 | 13.0 | 0.00 | 0.01 | 0.00 | 90 | |
| 20260506013556 | 49 | 15 | 8.7 | 13.9 | 0.00 | 0.01 | 0.00 | 90 | |
| 20260506013049 | 49 | 18 | 9.6 | 13.9 | 0.00 | 0.01 | 0.00 | 89 | |
| 20260506012544 | 49 | 22 | 10.4 | 13.9 | 0.00 | 0.01 | 0.00 | 90 | |
| 20260506012309 | 49 | 21 | 9.6 | 13.9 | 0.00 | 0.01 | 0.00 | 89 | |
| 20260506011527 | 49 | 27 | 9.6 | 13.9 | 0.00 | 0.01 | 0.00 | 89 | |
| 20260506011025 | 49 | 21 | 9.6 | 13.9 | 0.00 | 0.01 | 0.00 | 89 | |
| 20260506010517 | 49 | 24 | 9.6 | 13.9 | 0.00 | 0.01 | 0.00 | 89 | |
| 20260506010014 | 49 | 22 | 9.6 | 13.9 | 0.00 | 0.01 | 0.00 | 89 | |
| 20260506005508 | 49 | 31 | 9.6 | 15.6 | 0.00 | 0.01 | 0.00 | 89 | |
| 20260506005002 | 49 | 24 | 9.6 | 15.6 | 0.00 | 0.01 | 0.00 | 89 | |
| 20260506004455 | 49 | 19 | 9.6 | 15.6 | 0.00 | 0.01 | 0.00 | 89 | |
| 20260506004450 | 49 | 22 | 9.6 | 14.8 | 0.00 | 0.01 | 0.00 | 89 | |
| 20260506003444 | 49 | 18 | 9.6 | 14.8 | 0.00 | 0.01 | 0.00 | 89 | |
| 20260506003210 | 49 | 18 | 8.7 | 14.8 | 0.00 | 0.01 | 0.00 | 89 | |
| 20260506002433 | 49 | 18 | 8.7 | 14.8 | 0.00 | 0.01 | 0.00 | 88 | |
| 20260506001927 | 49 | 17 | 9.6 | 14.8 | 0.00 | 0.01 | 0.00 | 88 | |
| 20260506001419 | 49 | 5 | 9.6 | 14.8 | 0.00 | 0.01 | 0.00 | 88 | |
| 20260506000915 | 49 | 26 | 9.6 | 14.8 | 0.00 | 0.01 | 0.00 | 88 | |
| 20260506000405 | 49 | 13 | 9.6 | 14.8 | 0.00 | 0.01 | 0.00 | 88 | |
| 20260505235902 | 49 | 26 | 10.4 | 14.8 | 0.00 | 0.01 | 0.00 | 88 | |
| 20260505235355 | 49 | 20 | 11.3 | 14.8 | 0.00 | 0.01 | 0.00 | 88 | |
| 20260505235122 | 49 | 19 | 12.2 | 16.5 | 0.00 | 0.01 | 0.00 | 88 | |
| 20260505234345 | 49 | 17 | 11.3 | 16.5 | 0.00 | 0.01 | 0.00 | 88 | |
| 20260505233834 | 49 | 17 | 9.6 | 16.5 | 0.00 | 0.01 | 0.00 | 88 | |
| 20260505233608 | 49 | 18 | 9.6 | 17.4 | 0.00 | 0.01 | 0.00 | 88 | |
| 20260505232827 | 49 | 9 | 10.4 | 17.4 | 0.00 | 0.01 | 0.00 | 87 | |
| 20260505232320 | 49 | 14 | 11.3 | 18.2 | 0.00 | 0.01 | 0.00 | 87 | |
| 20260505231814 | 49 | 15 | 11.3 | 18.2 | 0.00 | 0.01 | 0.00 | 87 | |
| 20260505231304 | 49 | 5 | 11.3 | 15.6 | 0.00 | 0.01 | 0.00 | 87 | |
| 20260505230802 | 49 | 17 | 11.3 | 17.4 | 0.00 | 0.01 | 0.00 | 87 | |
| 20260505230258 | 49 | 38 | 12.2 | 20.9 | 0.00 | 0.01 | 0.00 | 87 | |
| 20260505225750 | 49 | 22 | 13.0 | 20.9 | 0.00 | 0.01 | 0.00 | 87 | |
| 20260505225245 | 49 | 13 | 13.0 | 21.7 | 0.00 | 0.01 | 0.00 | 87 | |
| 20260505224738 | 49 | 17 | 13.9 | 21.7 | 0.00 | 0.01 | 0.00 | 87 | |
| 20260505224233 | 49 | 12 | 13.0 | 21.7 | 0.00 | 0.01 | 0.00 | 87 | |
| 20260505223725 | 49 | 20 | 13.0 | 19.1 | 0.00 | 0.01 | 0.00 | 87 | |
| 20260505223721 | 49 | 20 | 12.2 | 19.1 | 0.00 | 0.01 | 0.00 | 87 | |
| 20260505222947 | 49 | 15 | 13.0 | 20.9 | 0.00 | 0.01 | 0.00 | 87 | |
| 20260505222210 | 49 | 20 | 13.0 | 20.9 | 0.00 | 0.01 | 0.00 | 87 | |
| 20260505221702 | 49 | 13 | 12.2 | 20.9 | 0.00 | 0.01 | 0.00 | 88 | |
| 20260505221154 | 49 | 15 | 12.2 | 20.0 | 0.00 | 0.01 | 0.00 | 88 | |
| 20260505220650 | 49 | 25 | 13.9 | 20.0 | 0.00 | 0.01 | 0.00 | 88 | |
| 20260505220144 | 49 | 28 | 13.9 | 20.9 | 0.00 | 0.01 | 0.00 | 88 | |
| 20260505215640 | 49 | 15 | 13.0 | 20.9 | 0.00 | 0.01 | 0.01 | 88 | |
| 20260505215134 | 49 | 28 | 12.2 | 20.9 | 0.00 | 0.01 | 0.01 | 88 | |
| 20260505214625 | 49 | 22 | 12.2 | 17.4 | 0.00 | 0.01 | 0.01 | 88 | |
| 20260505214118 | 49 | 26 | 12.2 | 17.4 | 0.00 | 0.01 | 0.01 | 88 | |
| 20260505213612 | 49 | 20 | 12.2 | 18.2 | 0.00 | 0.01 | 0.01 | 88 | |
| 20260505213335 | 49 | 9 | 13.9 | 20.0 | 0.00 | 0.01 | 0.01 | 88 | |
| 20260505212602 | 50 | 5 | 13.9 | 20.0 | 0.00 | 0.01 | 0.01 | 88 | |
| 20260505212322 | 50 | 5 | 14.8 | 20.9 | 0.00 | 0.01 | 0.01 | 88 | |
| 20260505211548 | 49 | 28 | 13.9 | 20.9 | 0.00 | 0.01 | 0.01 | 88 | |
| 20260505211042 | 50 | 19 | 13.9 | 18.2 | 0.00 | 0.01 | 0.01 | 88 | |
| 20260505210529 | 50 | 23 | 14.8 | 21.7 | 0.00 | 0.01 | 0.01 | 87 | |
| 20260505210029 | 50 | 27 | 15.6 | 21.7 | 0.00 | 0.01 | 0.01 | 87 | |
| 20260505205524 | 50 | 9 | 14.8 | 21.7 | 0.00 | 0.01 | 0.01 | 87 | |
| 20260505205017 | 50 | 17 | 14.8 | 22.6 | 0.00 | 0.01 | 0.01 | 87 | |
| 20260505204508 | 50 | 9 | 14.8 | 22.6 | 0.00 | 0.01 | 0.01 | 87 | |
| 20260505204002 | 50 | 31 | 13.9 | 19.1 | 0.00 | 0.01 | 0.01 | 87 | |
| 20260505203728 | 50 | 355 | 14.8 | 20.9 | 0.00 | 0.01 | 0.01 | 87 | |
| 20260505202950 | 50 | 5 | 13.9 | 22.6 | 0.00 | 0.01 | 0.01 | 87 | |
| 20260505202439 | 50 | 33 | 13.9 | 22.6 | 0.00 | 0.01 | 0.01 | 87 | |
| 20260505201938 | 50 | 5 | 15.6 | 24.3 | 0.00 | 0.01 | 0.01 | 87 | |
| 20260505201435 | 50 | 13 | 15.6 | 24.3 | 0.00 | 0.01 | 0.01 | 87 | |
| 20260505200926 | 50 | 11 | 14.8 | 23.5 | 0.00 | 0.01 | 0.01 | 87 | |
| 20260505200651 | 50 | 28 | 13.9 | 23.5 | 0.00 | 0.01 | 0.01 | 87 | |
| 20260505195916 | 50 | 13 | 13.9 | 24.3 | 0.00 | 0.01 | 0.01 | 87 | |
| 20260505195639 | 50 | 20 | 13.0 | 24.3 | 0.00 | 0.01 | 0.01 | 87 | |
| 20260505194902 | 50 | 27 | 12.2 | 20.0 | 0.00 | 0.01 | 0.01 | 88 | |
| 20260505194356 | 50 | 19 | 13.0 | 20.0 | 0.00 | 0.01 | 0.01 | 87 | |
| 20260505193850 | 50 | 28 | 13.9 | 19.1 | 0.00 | 0.01 | 0.01 | 87 | |
| 20260505193344 | 50 | 24 | 14.8 | 22.6 | 0.00 | 0.01 | 0.01 | 87 | |
| 20260505192839 | 50 | 15 | 16.5 | 22.6 | 0.00 | 0.01 | 0.01 | 87 | |
| 20260505192328 | 50 | 347 | 17.4 | 24.3 | 0.00 | 0.01 | 0.01 | 87 | |
| 20260505191826 | 50 | 5 | 17.4 | 24.3 | 0.00 | 0.01 | 0.01 | 87 | |
| 20260505191322 | 50 | 30 | 16.5 | 24.3 | 0.00 | 0.01 | 0.01 | 87 | |
| 20260505190809 | 51 | 13 | 15.6 | 22.6 | 0.00 | 0.01 | 0.01 | 87 | |
| 20260505190304 | 51 | 19 | 15.6 | 26.1 | 0.00 | 0.01 | 0.01 | 88 | |
| 20260505185758 | 51 | 19 | 16.5 | 26.1 | 0.00 | 0.01 | 0.01 | 87 | |
| 20260505185252 | 51 | 20 | 15.6 | 24.3 | 0.00 | 0.01 | 0.01 | 88 | |
| 20260505184752 | 51 | 12 | 16.5 | 24.3 | 0.00 | 0.01 | 0.01 | 88 | |
| 20260505184525 | 51 | 19 | 16.5 | 21.7 | 0.00 | 0.01 | 0.01 | 88 | |
| 20260505183754 | 51 | 11 | 14.8 | 21.7 | 0.00 | 0.01 | 0.01 | 88 | |
| 20260505183523 | 51 | 5 | 14.8 | 20.0 | 0.00 | 0.01 | 0.01 | 88 | |
| 20260505182754 | 51 | 15 | 15.6 | 24.3 | 0.00 | 0.01 | 0.01 | 87 | |
| 20260505182252 | 51 | 0 | 16.5 | 24.3 | 0.00 | 0.01 | 0.01 | 87 | |
| 20260505181750 | 51 | 22 | 14.8 | 24.3 | 0.00 | 0.01 | 0.01 | 87 | |
| 20260505181251 | 52 | 355 | 13.9 | 24.3 | 0.00 | 0.01 | 0.01 | 87 | |
| 20260505180750 | 52 | 355 | 13.0 | 22.6 | 0.00 | 0.01 | 0.01 | 87 | |
| 20260505180253 | 52 | 355 | 14.8 | 23.5 | 0.00 | 0.01 | 0.01 | 87 | |
| 20260505175753 | 52 | 13 | 14.8 | 23.5 | 0.00 | 0.01 | 0.01 | 86 | |
| 20260505175250 | 52 | 0 | 13.9 | 21.7 | 0.00 | 0.01 | 0.01 | 86 | |
| 20260505174750 | 52 | 10 | 16.5 | 26.1 | 0.00 | 0.01 | 0.01 | 86 | |
| 20260505174249 | 52 | 355 | 17.4 | 26.1 | 0.00 | 0.01 | 0.01 | 86 | |
| 20260505173747 | 52 | 24 | 17.4 | 26.1 | 0.00 | 0.01 | 0.01 | 86 | |
| 20260505173517 | 53 | 5 | 18.2 | 26.1 | 0.00 | 0.01 | 0.01 | 85 | |
| 20260505172746 | 53 | 28 | 19.1 | 26.1 | 0.00 | 0.01 | 0.01 | 85 | |
| 20260505172248 | 53 | 5 | 16.5 | 26.1 | 0.00 | 0.01 | 0.01 | 85 | |
| 20260505171746 | 53 | 5 | 13.9 | 20.9 | 0.00 | 0.01 | 0.01 | 85 | |
| 20260505171246 | 53 | 19 | 15.6 | 25.2 | 0.00 | 0.01 | 0.01 | 84 | |
| 20260505170747 | 53 | 355 | 18.2 | 26.9 | 0.00 | 0.01 | 0.01 | 83 | |
| 20260505170246 | 53 | 14 | 16.5 | 26.9 | 0.00 | 0.01 | 0.01 | 82 | |
| 20260505165746 | 53 | 12 | 15.6 | 24.3 | 0.00 | 0.01 | 0.01 | 82 | |
| 20260505165247 | 53 | 35 | 14.8 | 24.3 | 0.00 | 0.01 | 0.01 | 82 | |
| 20260505164748 | 53 | 17 | 13.9 | 23.5 | 0.00 | 0.01 | 0.01 | 82 | |
| 20260505164246 | 53 | 22 | 13.9 | 20.9 | 0.00 | 0.01 | 0.01 | 82 | |
| 20260505163747 | 53 | 16 | 14.8 | 20.9 | 0.00 | 0.01 | 0.01 | 82 | |
| 20260505163247 | 53 | 35 | 16.5 | 22.6 | 0.00 | 0.01 | 0.01 | 82 | |
| 20260505162748 | 53 | 5 | 18.2 | 25.2 | 0.00 | 0.01 | 0.01 | 82 | |
| 20260505162246 | 53 | 19 | 18.2 | 27.8 | 0.00 | 0.01 | 0.01 | 82 | |
| 20260505161744 | 53 | 10 | 17.4 | 27.8 | 0.00 | 0.01 | 0.01 | 83 | |
| 20260505161236 | 53 | 13 | 17.4 | 26.1 | 0.00 | 0.01 | 0.01 | 82 | |
| 20260505161001 | 53 | 20 | 17.4 | 26.1 | 0.00 | 0.01 | 0.01 | 82 | |
| 20260505160222 | 54 | 0 | 17.4 | 24.3 | 0.00 | 0.01 | 0.01 | 83 | |
| 20260505152633 | 54 | 13 | 16.5 | 23.5 | 0.00 | 0.01 | 0.01 | 85 | |
| 20260505152359 | 54 | 9 | 14.8 | 23.5 | 0.00 | 0.01 | 0.01 | 84 | |
| 20260505151632 | 54 | 15 | 13.9 | 21.7 | 0.00 | 0.01 | 0.01 | 85 | |
| 20260505151350 | 53 | 28 | 15.6 | 22.6 | 0.00 | 0.01 | 0.01 | 85 | |
| 20260505150616 | 53 | 5 | 14.8 | 22.6 | 0.00 | 0.01 | 0.01 | 85 | |
| 20260505150111 | 53 | 13 | 15.6 | 21.7 | 0.00 | 0.01 | 0.01 | 86 |